Year,Month,Day,Hour,Minute,Value (Times are PST for temperature in C)
2008,07,24,00,00,13.90
2008,07,24,00,01,13.90
2008,07,24,00,02,13.90
2008,07,24,00,03,13.90
2008,07,24,00,04,13.90
2008,07,24,00,05,13.90
2008,07,24,00,06,13.90
2008,07,24,00,07,13.90
2008,07,24,00,08,13.90
2008,07,24,00,09,14.00
2008,07,24,00,10,14.00
2008,07,24,00,11,14.10
2008,07,24,00,12,14.10
2008,07,24,00,13,14.10
2008,07,24,00,14,14.10
2008,07,24,00,15,14.10
2008,07,24,00,16,14.10
2008,07,24,00,17,14.10
2008,07,24,00,18,14.10
2008,07,24,00,19,14.10
2008,07,24,00,20,14.00
2008,07,24,00,21,14.00
2008,07,24,00,22,14.00
2008,07,24,00,23,13.90
2008,07,24,00,24,13.90
2008,07,24,00,25,13.90
2008,07,24,00,26,13.90
2008,07,24,00,27,13.90
2008,07,24,00,28,13.80
2008,07,24,00,29,13.80
2008,07,24,00,30,13.80
2008,07,24,00,31,13.80
2008,07,24,00,32,13.80
2008,07,24,00,33,13.80
2008,07,24,00,34,13.80
2008,07,24,00,35,13.70
2008,07,24,00,36,13.70
2008,07,24,00,37,13.70
2008,07,24,00,38,13.70
2008,07,24,00,39,13.70
2008,07,24,00,40,13.60
2008,07,24,00,41,13.70
2008,07,24,00,42,13.60
2008,07,24,00,43,13.60
2008,07,24,00,44,13.60
2008,07,24,00,45,13.60
2008,07,24,00,46,13.50
2008,07,24,00,47,13.50
2008,07,24,00,48,13.40
2008,07,24,00,49,13.40
2008,07,24,00,50,13.30
2008,07,24,00,51,13.30
2008,07,24,00,52,13.30
2008,07,24,00,53,13.30
2008,07,24,00,54,13.30
2008,07,24,00,55,13.20
2008,07,24,00,56,13.20
2008,07,24,00,57,13.20
2008,07,24,00,58,13.20
2008,07,24,00,59,13.10
2008,07,24,01,00,13.10
2008,07,24,01,01,13.10
2008,07,24,01,02,13.10
2008,07,24,01,03,13.00
2008,07,24,01,04,12.90
2008,07,24,01,05,12.90
2008,07,24,01,06,12.90
2008,07,24,01,07,12.80
2008,07,24,01,08,12.80
2008,07,24,01,09,12.80
2008,07,24,01,10,12.70
2008,07,24,01,11,12.70
2008,07,24,01,12,12.70
2008,07,24,01,13,12.60
2008,07,24,01,14,12.60
2008,07,24,01,15,12.50
2008,07,24,01,16,12.50
2008,07,24,01,17,12.40
2008,07,24,01,18,12.40
2008,07,24,01,19,12.30
2008,07,24,01,20,12.30
2008,07,24,01,21,12.30
2008,07,24,01,22,12.20
2008,07,24,01,23,12.20
2008,07,24,01,24,12.20
2008,07,24,01,25,12.20
2008,07,24,01,26,12.10
2008,07,24,01,27,12.10
2008,07,24,01,28,12.10
2008,07,24,01,29,12.10
2008,07,24,01,30,12.10
2008,07,24,01,31,12.00
2008,07,24,01,32,12.00
2008,07,24,01,33,12.00
2008,07,24,01,34,11.90
2008,07,24,01,35,11.90
2008,07,24,01,36,11.90
2008,07,24,01,37,11.90
2008,07,24,01,38,11.90
2008,07,24,01,39,11.90
2008,07,24,01,40,11.90
2008,07,24,01,41,11.90
2008,07,24,01,42,11.90
2008,07,24,01,43,11.90
2008,07,24,01,44,11.90
2008,07,24,01,45,11.90
2008,07,24,01,46,11.90
2008,07,24,01,47,11.90
2008,07,24,01,48,11.90
2008,07,24,01,49,11.90
2008,07,24,01,50,11.90
2008,07,24,01,51,11.90
2008,07,24,01,52,11.90
2008,07,24,01,53,11.90
2008,07,24,01,54,11.90
2008,07,24,01,55,11.90
2008,07,24,01,56,11.90
2008,07,24,01,57,11.90
2008,07,24,01,58,11.80
2008,07,24,01,59,11.80
2008,07,24,02,00,11.80
2008,07,24,02,01,11.80
2008,07,24,02,02,11.80
2008,07,24,02,03,11.80
2008,07,24,02,04,11.80
2008,07,24,02,05,11.80
2008,07,24,02,06,11.80
2008,07,24,02,07,11.80
2008,07,24,02,08,11.90
2008,07,24,02,09,11.90
2008,07,24,02,10,11.90
2008,07,24,02,11,11.90
2008,07,24,02,12,11.90
2008,07,24,02,13,11.90
2008,07,24,02,14,12.00
2008,07,24,02,15,12.00
2008,07,24,02,16,12.00
2008,07,24,02,17,12.00
2008,07,24,02,18,12.00
2008,07,24,02,19,11.90
2008,07,24,02,20,11.90
2008,07,24,02,21,11.90
2008,07,24,02,22,11.90
2008,07,24,02,23,11.80
2008,07,24,02,24,11.80
2008,07,24,02,25,11.80
2008,07,24,02,26,11.80
2008,07,24,02,27,11.70
2008,07,24,02,28,11.70
2008,07,24,02,29,11.70
2008,07,24,02,30,11.70
2008,07,24,02,31,11.70
2008,07,24,02,32,11.70
2008,07,24,02,33,11.70
2008,07,24,02,34,11.70
2008,07,24,02,35,11.70
2008,07,24,02,36,11.70
2008,07,24,02,37,11.70
2008,07,24,02,38,11.70
2008,07,24,02,39,11.70
2008,07,24,02,40,11.70
2008,07,24,02,41,11.70
2008,07,24,02,42,11.70
2008,07,24,02,43,11.70
2008,07,24,02,44,11.70
2008,07,24,02,45,11.70
2008,07,24,02,46,11.70
2008,07,24,02,47,11.70
2008,07,24,02,48,11.60
2008,07,24,02,49,11.60
2008,07,24,02,50,11.60
2008,07,24,02,51,11.60
2008,07,24,02,52,11.50
2008,07,24,02,53,11.50
2008,07,24,02,54,11.40
2008,07,24,02,55,11.40
2008,07,24,02,56,11.40
2008,07,24,02,57,11.40
2008,07,24,02,58,11.40
2008,07,24,02,59,11.30
2008,07,24,03,00,11.30
2008,07,24,03,01,11.30
2008,07,24,03,02,11.30
2008,07,24,03,03,11.30
2008,07,24,03,04,11.30
2008,07,24,03,05,11.30
2008,07,24,03,06,11.30
2008,07,24,03,07,11.30
2008,07,24,03,08,11.30
2008,07,24,03,09,11.20
2008,07,24,03,10,11.20
2008,07,24,03,11,11.20
2008,07,24,03,12,11.20
2008,07,24,03,13,11.20
2008,07,24,03,14,11.20
2008,07,24,03,15,11.20
2008,07,24,03,16,11.20
2008,07,24,03,17,11.20
2008,07,24,03,18,11.10
2008,07,24,03,19,11.10
2008,07,24,03,20,11.10
2008,07,24,03,21,11.10
2008,07,24,03,22,11.10
2008,07,24,03,23,11.10
2008,07,24,03,24,11.10
2008,07,24,03,25,11.00
2008,07,24,03,26,11.00
2008,07,24,03,27,11.00
2008,07,24,03,28,11.00
2008,07,24,03,29,11.00
2008,07,24,03,30,11.00
2008,07,24,03,31,10.90
2008,07,24,03,32,10.90
2008,07,24,03,33,10.90
2008,07,24,03,34,10.90
2008,07,24,03,35,10.90
2008,07,24,03,36,10.90
2008,07,24,03,37,10.90
2008,07,24,03,38,10.90
2008,07,24,03,39,10.90
2008,07,24,03,40,10.90
2008,07,24,03,41,10.90
2008,07,24,03,42,10.90
2008,07,24,03,43,10.90
2008,07,24,03,44,10.90
2008,07,24,03,45,10.90
2008,07,24,03,46,10.90
2008,07,24,03,47,10.90
2008,07,24,03,48,10.90
2008,07,24,03,49,10.90
2008,07,24,03,50,10.90
2008,07,24,03,51,10.90
2008,07,24,03,52,10.90
2008,07,24,03,53,10.90
2008,07,24,03,54,10.90
2008,07,24,03,55,10.90
2008,07,24,03,56,10.80
2008,07,24,03,57,10.80
2008,07,24,03,58,10.80
2008,07,24,03,59,10.80
2008,07,24,04,00,10.80
2008,07,24,04,01,10.80
2008,07,24,04,02,10.80
2008,07,24,04,03,10.80
2008,07,24,04,04,10.80
2008,07,24,04,05,10.80
2008,07,24,04,06,10.80
2008,07,24,04,07,10.80
2008,07,24,04,08,10.80
2008,07,24,04,09,10.80
2008,07,24,04,10,10.80
2008,07,24,04,11,10.80
2008,07,24,04,12,10.80
2008,07,24,04,13,10.80
2008,07,24,04,14,10.80
2008,07,24,04,15,10.80
2008,07,24,04,16,10.80
2008,07,24,04,17,10.80
2008,07,24,04,18,10.80
2008,07,24,04,19,10.80
2008,07,24,04,20,10.80
2008,07,24,04,21,10.80
2008,07,24,04,22,10.80
2008,07,24,04,23,10.80
2008,07,24,04,24,10.80
2008,07,24,04,25,10.80
2008,07,24,04,26,10.80
2008,07,24,04,27,10.80
2008,07,24,04,28,10.80
2008,07,24,04,29,10.80
2008,07,24,04,30,10.80
2008,07,24,04,31,10.80
2008,07,24,04,32,10.80
2008,07,24,04,33,10.80
2008,07,24,04,34,10.80
2008,07,24,04,35,10.80
2008,07,24,04,36,10.80
2008,07,24,04,37,10.80
2008,07,24,04,38,10.80
2008,07,24,04,39,10.80
2008,07,24,04,40,10.80
2008,07,24,04,41,10.80
2008,07,24,04,42,10.80
2008,07,24,04,43,10.80
2008,07,24,04,44,10.80
2008,07,24,04,45,10.90
2008,07,24,04,46,10.90
2008,07,24,04,47,10.90
2008,07,24,04,48,11.00
2008,07,24,04,49,11.00
2008,07,24,04,50,11.00
2008,07,24,04,51,11.10
2008,07,24,04,52,11.10
2008,07,24,04,53,11.10
2008,07,24,04,54,11.10
2008,07,24,04,55,11.10
2008,07,24,04,56,11.10
2008,07,24,04,57,11.10
2008,07,24,04,58,11.10
2008,07,24,04,59,11.10
2008,07,24,05,00,11.10
2008,07,24,05,01,11.10
2008,07,24,05,02,11.10
2008,07,24,05,03,11.10
2008,07,24,05,04,11.10
2008,07,24,05,05,11.10
2008,07,24,05,06,11.10
2008,07,24,05,07,11.10
2008,07,24,05,08,11.10
2008,07,24,05,09,11.10
2008,07,24,05,10,11.10
2008,07,24,05,11,11.10
2008,07,24,05,12,11.10
2008,07,24,05,13,11.00
2008,07,24,05,14,11.00
2008,07,24,05,15,11.00
2008,07,24,05,16,11.00
2008,07,24,05,17,10.90
2008,07,24,05,18,10.90
2008,07,24,05,19,10.90
2008,07,24,05,20,10.90
2008,07,24,05,21,10.80
2008,07,24,05,22,10.80
2008,07,24,05,23,10.80
2008,07,24,05,24,10.80
2008,07,24,05,25,10.80
2008,07,24,05,26,10.80
2008,07,24,05,27,10.80
2008,07,24,05,28,10.70
2008,07,24,05,29,10.70
2008,07,24,05,30,10.70
2008,07,24,05,31,10.70
2008,07,24,05,32,10.70
2008,07,24,05,33,10.70
2008,07,24,05,34,10.70
2008,07,24,05,35,10.80
2008,07,24,05,36,10.80
2008,07,24,05,37,10.80
2008,07,24,05,38,10.90
2008,07,24,05,39,10.90
2008,07,24,05,40,11.00
2008,07,24,05,41,11.10
2008,07,24,05,42,11.10
2008,07,24,05,43,11.20
2008,07,24,05,44,11.20
2008,07,24,05,45,11.30
2008,07,24,05,46,11.30
2008,07,24,05,47,11.30
2008,07,24,05,48,11.30
2008,07,24,05,49,11.30
2008,07,24,05,50,11.30
2008,07,24,05,51,11.30
2008,07,24,05,52,11.30
2008,07,24,05,53,11.30
2008,07,24,05,54,11.30
2008,07,24,05,55,11.20
2008,07,24,05,56,11.20
2008,07,24,05,57,11.20
2008,07,24,05,58,11.30
2008,07,24,05,59,11.30
2008,07,24,06,00,11.40
2008,07,24,06,01,11.50
2008,07,24,06,02,11.60
2008,07,24,06,03,11.70
2008,07,24,06,04,11.80
2008,07,24,06,05,11.90
2008,07,24,06,06,12.00
2008,07,24,06,07,12.00
2008,07,24,06,08,12.10
2008,07,24,06,09,12.10
2008,07,24,06,10,12.10
2008,07,24,06,11,12.10
2008,07,24,06,12,12.10
2008,07,24,06,13,12.20
2008,07,24,06,14,12.20
2008,07,24,06,15,12.10
2008,07,24,06,16,12.10
2008,07,24,06,17,12.10
2008,07,24,06,18,12.10
2008,07,24,06,19,12.10
2008,07,24,06,20,12.10
2008,07,24,06,21,12.10
2008,07,24,06,22,12.10
2008,07,24,06,23,12.10
2008,07,24,06,24,12.20
2008,07,24,06,25,12.20
2008,07,24,06,26,12.20
2008,07,24,06,27,12.30
2008,07,24,06,28,12.30
2008,07,24,06,29,12.30
2008,07,24,06,30,12.30
2008,07,24,06,31,12.30
2008,07,24,06,32,12.30
2008,07,24,06,33,12.30
2008,07,24,06,34,12.30
2008,07,24,06,35,12.30
2008,07,24,06,36,12.30
2008,07,24,06,37,12.40
2008,07,24,06,38,12.40
2008,07,24,06,39,12.40
2008,07,24,06,40,12.40
2008,07,24,06,41,12.40
2008,07,24,06,42,12.40
2008,07,24,06,43,12.40
2008,07,24,06,44,12.40
2008,07,24,06,45,12.40
2008,07,24,06,46,12.30
2008,07,24,06,47,12.30
2008,07,24,06,48,12.30
2008,07,24,06,49,12.30
2008,07,24,06,50,12.30
2008,07,24,06,51,12.30
2008,07,24,06,52,12.30
2008,07,24,06,53,12.30
2008,07,24,06,54,12.30
2008,07,24,06,55,12.30
2008,07,24,06,56,12.30
2008,07,24,06,57,12.30
2008,07,24,06,58,12.30
2008,07,24,06,59,12.40
2008,07,24,07,00,12.40
2008,07,24,07,01,12.40
2008,07,24,07,02,12.40
2008,07,24,07,03,12.50
2008,07,24,07,04,12.50
2008,07,24,07,05,12.50
2008,07,24,07,06,12.50
2008,07,24,07,07,12.50
2008,07,24,07,08,12.60
2008,07,24,07,09,12.60
2008,07,24,07,10,12.60
2008,07,24,07,11,12.60
2008,07,24,07,12,12.60
2008,07,24,07,13,12.60
2008,07,24,07,14,12.70
2008,07,24,07,15,12.70
2008,07,24,07,16,12.70
2008,07,24,07,17,12.70
2008,07,24,07,18,12.70
2008,07,24,07,19,12.70
2008,07,24,07,20,12.80
2008,07,24,07,21,12.80
2008,07,24,07,22,12.80
2008,07,24,07,23,12.80
2008,07,24,07,24,12.80
2008,07,24,07,25,12.80
2008,07,24,07,26,12.80
2008,07,24,07,27,12.90
2008,07,24,07,28,12.90
2008,07,24,07,29,12.90
2008,07,24,07,30,12.90
2008,07,24,07,31,12.90
2008,07,24,07,32,13.00
2008,07,24,07,33,13.00
2008,07,24,07,34,13.00
2008,07,24,07,35,13.10
2008,07,24,07,36,13.10
2008,07,24,07,37,13.10
2008,07,24,07,38,13.20
2008,07,24,07,39,13.20
2008,07,24,07,40,13.20
2008,07,24,07,41,13.20
2008,07,24,07,42,13.30
2008,07,24,07,43,13.30
2008,07,24,07,44,13.30
2008,07,24,07,45,13.30
2008,07,24,07,46,13.40
2008,07,24,07,47,13.40
2008,07,24,07,48,13.40
2008,07,24,07,49,13.40
2008,07,24,07,50,13.50
2008,07,24,07,51,13.50
2008,07,24,07,52,13.50
2008,07,24,07,53,13.50
2008,07,24,07,54,13.50
2008,07,24,07,55,13.60
2008,07,24,07,56,13.60
2008,07,24,07,57,13.60
2008,07,24,07,58,13.60
2008,07,24,07,59,13.60
2008,07,24,08,00,13.60
2008,07,24,08,01,13.60
2008,07,24,08,02,13.60
2008,07,24,08,03,13.60
2008,07,24,08,04,13.60
2008,07,24,08,05,13.60
2008,07,24,08,06,13.60
2008,07,24,08,07,13.60
2008,07,24,08,08,13.70
2008,07,24,08,09,13.70
2008,07,24,08,10,13.70
2008,07,24,08,11,13.80
2008,07,24,08,12,13.80
2008,07,24,08,13,13.80
2008,07,24,08,14,13.80
2008,07,24,08,15,13.90
2008,07,24,08,16,13.90
2008,07,24,08,17,13.90
2008,07,24,08,18,13.90
2008,07,24,08,19,13.90
2008,07,24,08,20,14.00
2008,07,24,08,21,14.00
2008,07,24,08,22,14.00
2008,07,24,08,23,14.10
2008,07,24,08,24,14.10
2008,07,24,08,25,14.10
2008,07,24,08,26,14.10
2008,07,24,08,27,14.20
2008,07,24,08,28,14.20
2008,07,24,08,29,14.20
2008,07,24,08,30,14.20
2008,07,24,08,31,14.30
2008,07,24,08,32,14.30
2008,07,24,08,33,14.30
2008,07,24,08,34,14.30
2008,07,24,08,35,14.30
2008,07,24,08,36,14.30
2008,07,24,08,37,14.30
2008,07,24,08,38,14.30
2008,07,24,08,39,14.30
2008,07,24,08,40,14.40
2008,07,24,08,41,14.40
2008,07,24,08,42,14.40
2008,07,24,08,43,14.50
2008,07,24,08,44,14.50
2008,07,24,08,45,14.60
2008,07,24,08,46,14.60
2008,07,24,08,47,14.60
2008,07,24,08,48,14.60
2008,07,24,08,49,14.60
2008,07,24,08,50,14.60
2008,07,24,08,51,14.70
2008,07,24,08,52,14.70
2008,07,24,08,53,14.70
2008,07,24,08,54,14.70
2008,07,24,08,55,14.80
2008,07,24,08,56,14.80
2008,07,24,08,57,14.80
2008,07,24,08,58,14.90
2008,07,24,08,59,15.00
2008,07,24,09,00,15.00
2008,07,24,09,01,15.00
2008,07,24,09,02,15.00
2008,07,24,09,03,15.00
2008,07,24,09,04,15.10
2008,07,24,09,05,15.20
2008,07,24,09,06,15.20
2008,07,24,09,07,15.30
2008,07,24,09,08,15.30
2008,07,24,09,09,15.40
2008,07,24,09,10,15.40
2008,07,24,09,11,15.50
2008,07,24,09,12,15.50
2008,07,24,09,13,15.60
2008,07,24,09,14,15.60
2008,07,24,09,15,15.70
2008,07,24,09,16,15.70
2008,07,24,09,17,15.80
2008,07,24,09,18,15.80
2008,07,24,09,19,15.90
2008,07,24,09,20,15.90
2008,07,24,09,21,16.00
2008,07,24,09,22,16.00
2008,07,24,09,23,16.00
2008,07,24,09,24,16.10
2008,07,24,09,25,16.10
2008,07,24,09,26,16.20
2008,07,24,09,27,16.20
2008,07,24,09,28,16.20
2008,07,24,09,29,16.30
2008,07,24,09,30,16.30
2008,07,24,09,31,16.40
2008,07,24,09,32,16.40
2008,07,24,09,33,16.30
2008,07,24,09,34,16.30
2008,07,24,09,35,16.30
2008,07,24,09,36,16.30
2008,07,24,09,37,16.30
2008,07,24,09,38,16.30
2008,07,24,09,39,16.30
2008,07,24,09,40,16.30
2008,07,24,09,41,16.30
2008,07,24,09,42,16.40
2008,07,24,09,43,16.40
2008,07,24,09,44,16.50
2008,07,24,09,45,16.60
2008,07,24,09,46,16.60
2008,07,24,09,47,16.70
2008,07,24,09,48,16.80
2008,07,24,09,49,16.80
2008,07,24,09,50,16.90
2008,07,24,09,51,17.00
2008,07,24,09,52,17.00
2008,07,24,09,53,17.10
2008,07,24,09,54,17.10
2008,07,24,09,55,17.10
2008,07,24,09,56,17.10
2008,07,24,09,57,17.10
2008,07,24,09,58,17.10
2008,07,24,09,59,17.10
2008,07,24,10,00,17.10
2008,07,24,10,01,17.10
2008,07,24,10,02,17.10
2008,07,24,10,03,17.10
2008,07,24,10,04,17.10
2008,07,24,10,05,17.10
2008,07,24,10,06,17.10
2008,07,24,10,07,17.20
2008,07,24,10,08,17.20
2008,07,24,10,09,17.20
2008,07,24,10,10,17.30
2008,07,24,10,11,17.40
2008,07,24,10,12,17.40
2008,07,24,10,13,17.40
2008,07,24,10,14,17.40
2008,07,24,10,15,17.40
2008,07,24,10,16,17.40
2008,07,24,10,17,17.50
2008,07,24,10,18,17.60
2008,07,24,10,19,17.60
2008,07,24,10,20,17.70
2008,07,24,10,21,17.70
2008,07,24,10,22,17.80
2008,07,24,10,23,17.90
2008,07,24,10,24,18.00
2008,07,24,10,25,18.10
2008,07,24,10,26,18.10
2008,07,24,10,27,18.20
2008,07,24,10,28,18.20
2008,07,24,10,29,18.30
2008,07,24,10,30,18.30
2008,07,24,10,31,18.40
2008,07,24,10,32,18.40
2008,07,24,10,33,18.40
2008,07,24,10,34,18.50
2008,07,24,10,35,18.60
2008,07,24,10,36,18.70
2008,07,24,10,37,18.70
2008,07,24,10,38,18.70
2008,07,24,10,39,18.70
2008,07,24,10,40,18.60
2008,07,24,10,41,18.60
2008,07,24,10,42,18.50
2008,07,24,10,43,18.50
2008,07,24,10,44,18.50
2008,07,24,10,45,18.40
2008,07,24,10,46,18.50
2008,07,24,10,47,18.50
2008,07,24,10,48,18.60
2008,07,24,10,49,18.60
2008,07,24,10,50,18.50
2008,07,24,10,51,18.50
2008,07,24,10,52,18.40
2008,07,24,10,53,18.40
2008,07,24,10,54,18.30
2008,07,24,10,55,18.30
2008,07,24,10,56,18.30
2008,07,24,10,57,18.20
2008,07,24,10,58,18.10
2008,07,24,10,59,18.10
2008,07,24,11,00,18.10
2008,07,24,11,01,18.10
2008,07,24,11,02,18.10
2008,07,24,11,03,18.00
2008,07,24,11,04,18.00
2008,07,24,11,05,18.10
2008,07,24,11,06,18.10
2008,07,24,11,07,18.10
2008,07,24,11,08,18.10
2008,07,24,11,09,18.10
2008,07,24,11,10,18.10
2008,07,24,11,11,18.10
2008,07,24,11,12,18.10
2008,07,24,11,13,18.10
2008,07,24,11,14,18.10
2008,07,24,11,15,18.10
2008,07,24,11,16,18.20
2008,07,24,11,17,18.20
2008,07,24,11,18,18.30
2008,07,24,11,19,18.40
2008,07,24,11,20,18.50
2008,07,24,11,21,18.60
2008,07,24,11,22,18.70
2008,07,24,11,23,18.70
2008,07,24,11,24,18.80
2008,07,24,11,25,18.80
2008,07,24,11,26,18.90
2008,07,24,11,27,18.90
2008,07,24,11,28,19.00
2008,07,24,11,29,19.00
2008,07,24,11,30,19.00
2008,07,24,11,31,18.90
2008,07,24,11,32,19.00
2008,07,24,11,33,19.10
2008,07,24,11,34,19.10
2008,07,24,11,35,19.10
2008,07,24,11,36,19.00
2008,07,24,11,37,19.00
2008,07,24,11,38,19.00
2008,07,24,11,39,19.00
2008,07,24,11,40,19.10
2008,07,24,11,41,19.20
2008,07,24,11,42,19.20
2008,07,24,11,43,19.30
2008,07,24,11,44,19.30
2008,07,24,11,45,19.40
2008,07,24,11,46,19.50
2008,07,24,11,47,19.50
2008,07,24,11,48,19.60
2008,07,24,11,49,19.60
2008,07,24,11,50,19.60
2008,07,24,11,51,19.60
2008,07,24,11,52,19.60
2008,07,24,11,53,19.70
2008,07,24,11,54,19.70
2008,07,24,11,55,19.80
2008,07,24,11,56,19.90
2008,07,24,11,57,20.00
2008,07,24,11,58,20.10
2008,07,24,11,59,20.10
2008,07,24,12,00,20.10
2008,07,24,12,01,20.00
2008,07,24,12,02,20.00
2008,07,24,12,03,20.00
2008,07,24,12,04,20.00
2008,07,24,12,05,20.00
2008,07,24,12,06,20.10
2008,07,24,12,07,20.10
2008,07,24,12,08,20.10
2008,07,24,12,09,20.10
2008,07,24,12,10,20.10
2008,07,24,12,11,20.10
2008,07,24,12,12,20.10
2008,07,24,12,13,20.00
2008,07,24,12,14,20.00
2008,07,24,12,15,20.00
2008,07,24,12,16,19.90
2008,07,24,12,17,19.90
2008,07,24,12,18,19.90
2008,07,24,12,19,19.80
2008,07,24,12,20,19.80
2008,07,24,12,21,19.80
2008,07,24,12,22,19.70
2008,07,24,12,23,19.50
2008,07,24,12,24,19.30
2008,07,24,12,25,19.10
2008,07,24,12,26,18.90
2008,07,24,12,27,18.80
2008,07,24,12,28,18.60
2008,07,24,12,29,18.50
2008,07,24,12,30,18.40
2008,07,24,12,31,18.40
2008,07,24,12,32,18.40
2008,07,24,12,33,18.40
2008,07,24,12,34,18.40
2008,07,24,12,35,18.50
2008,07,24,12,36,18.60
2008,07,24,12,37,18.70
2008,07,24,12,38,18.70
2008,07,24,12,39,18.80
2008,07,24,12,40,18.90
2008,07,24,12,41,19.00
2008,07,24,12,42,19.10
2008,07,24,12,43,19.20
2008,07,24,12,44,19.30
2008,07,24,12,45,19.30
2008,07,24,12,46,19.40
2008,07,24,12,47,19.50
2008,07,24,12,48,19.60
2008,07,24,12,49,19.60
2008,07,24,12,50,19.60
2008,07,24,12,51,19.60
2008,07,24,12,52,19.60
2008,07,24,12,53,19.60
2008,07,24,12,54,19.60
2008,07,24,12,55,19.50
2008,07,24,12,56,19.50
2008,07,24,12,57,19.50
2008,07,24,12,58,19.60
2008,07,24,12,59,19.60
2008,07,24,13,00,19.60
2008,07,24,13,01,19.60
2008,07,24,13,02,19.70
2008,07,24,13,03,19.80
2008,07,24,13,04,19.80
2008,07,24,13,05,19.80
2008,07,24,13,06,19.80
2008,07,24,13,07,19.90
2008,07,24,13,08,19.80
2008,07,24,13,09,19.80
2008,07,24,13,10,19.80
2008,07,24,13,11,19.80
2008,07,24,13,12,19.70
2008,07,24,13,13,19.60
2008,07,24,13,14,19.60
2008,07,24,13,15,19.70
2008,07,24,13,16,19.70
2008,07,24,13,17,19.70
2008,07,24,13,18,19.90
2008,07,24,13,19,20.00
2008,07,24,13,20,19.90
2008,07,24,13,21,19.90
2008,07,24,13,22,19.80
2008,07,24,13,23,19.80
2008,07,24,13,24,19.80
2008,07,24,13,25,19.80
2008,07,24,13,26,19.90
2008,07,24,13,27,19.90
2008,07,24,13,28,20.00
2008,07,24,13,29,20.10
2008,07,24,13,30,20.10
2008,07,24,13,31,20.10
2008,07,24,13,32,20.10
2008,07,24,13,33,20.00
2008,07,24,13,34,20.00
2008,07,24,13,35,20.00
2008,07,24,13,36,19.80
2008,07,24,13,37,19.80
2008,07,24,13,38,19.70
2008,07,24,13,39,19.70
2008,07,24,13,40,19.70
2008,07,24,13,41,19.70
2008,07,24,13,42,19.60
2008,07,24,13,43,19.60
2008,07,24,13,44,19.50
2008,07,24,13,45,19.50
2008,07,24,13,46,19.50
2008,07,24,13,47,19.50
2008,07,24,13,48,19.50
2008,07,24,13,49,19.60
2008,07,24,13,50,19.60
2008,07,24,13,51,19.60
2008,07,24,13,52,19.60
2008,07,24,13,53,19.60
2008,07,24,13,54,19.60
2008,07,24,13,55,19.70
2008,07,24,13,56,19.80
2008,07,24,13,57,19.80
2008,07,24,13,58,19.90
2008,07,24,13,59,20.00
2008,07,24,14,00,20.00
2008,07,24,14,01,19.90
2008,07,24,14,02,19.90
2008,07,24,14,03,19.90
2008,07,24,14,04,19.90
2008,07,24,14,05,19.90
2008,07,24,14,06,20.00
2008,07,24,14,07,20.00
2008,07,24,14,08,20.10
2008,07,24,14,09,20.20
2008,07,24,14,10,20.20
2008,07,24,14,11,20.30
2008,07,24,14,12,20.40
2008,07,24,14,13,20.50
2008,07,24,14,14,20.50
2008,07,24,14,15,20.60
2008,07,24,14,16,20.60
2008,07,24,14,17,20.60
2008,07,24,14,18,20.70
2008,07,24,14,19,20.70
2008,07,24,14,20,20.70
2008,07,24,14,21,20.70
2008,07,24,14,22,20.70
2008,07,24,14,23,20.70
2008,07,24,14,24,20.60
2008,07,24,14,25,20.60
2008,07,24,14,26,20.60
2008,07,24,14,27,20.60
2008,07,24,14,28,20.60
2008,07,24,14,29,20.60
2008,07,24,14,30,20.60
2008,07,24,14,31,20.60
2008,07,24,14,32,20.60
2008,07,24,14,33,20.60
2008,07,24,14,34,20.60
2008,07,24,14,35,20.70
2008,07,24,14,36,20.70
2008,07,24,14,37,20.80
2008,07,24,14,38,20.80
2008,07,24,14,39,20.80
2008,07,24,14,40,20.80
2008,07,24,14,41,20.90
2008,07,24,14,42,20.90
2008,07,24,14,43,21.00
2008,07,24,14,44,21.10
2008,07,24,14,45,21.10
2008,07,24,14,46,21.10
2008,07,24,14,47,21.10
2008,07,24,14,48,21.10
2008,07,24,14,49,21.10
2008,07,24,14,50,21.10
2008,07,24,14,51,21.10
2008,07,24,14,52,21.10
2008,07,24,14,53,21.10
2008,07,24,14,54,21.10
2008,07,24,14,55,21.20
2008,07,24,14,56,21.20
2008,07,24,14,57,21.10
2008,07,24,14,58,21.10
2008,07,24,14,59,21.10
2008,07,24,15,00,21.10
2008,07,24,15,01,21.10
2008,07,24,15,02,21.10
2008,07,24,15,03,21.10
2008,07,24,15,04,21.10
2008,07,24,15,05,21.10
2008,07,24,15,06,21.10
2008,07,24,15,07,21.10
2008,07,24,15,08,21.20
2008,07,24,15,09,21.20
2008,07,24,15,10,21.20
2008,07,24,15,11,21.20
2008,07,24,15,12,21.10
2008,07,24,15,13,21.10
2008,07,24,15,14,21.00
2008,07,24,15,15,21.00
2008,07,24,15,16,20.90
2008,07,24,15,17,21.00
2008,07,24,15,18,21.00
2008,07,24,15,19,21.10
2008,07,24,15,20,21.10
2008,07,24,15,21,21.10
2008,07,24,15,22,21.10
2008,07,24,15,23,21.10
2008,07,24,15,24,21.10
2008,07,24,15,25,21.10
2008,07,24,15,26,21.10
2008,07,24,15,27,21.10
2008,07,24,15,28,21.20
2008,07,24,15,29,21.20
2008,07,24,15,30,21.20
2008,07,24,15,31,21.20
2008,07,24,15,32,21.20
2008,07,24,15,33,21.20
2008,07,24,15,34,21.20
2008,07,24,15,35,21.20
2008,07,24,15,36,21.20
2008,07,24,15,37,21.30
2008,07,24,15,38,21.40
2008,07,24,15,39,21.50
2008,07,24,15,40,21.70
2008,07,24,15,41,21.70
2008,07,24,15,42,21.80
2008,07,24,15,43,21.80
2008,07,24,15,44,21.80
2008,07,24,15,45,21.90
2008,07,24,15,46,21.90
2008,07,24,15,47,21.90
2008,07,24,15,48,22.00
2008,07,24,15,49,22.00
2008,07,24,15,50,22.00
2008,07,24,15,51,22.00
2008,07,24,15,52,22.00
2008,07,24,15,53,22.00
2008,07,24,15,54,22.10
2008,07,24,15,55,22.10
2008,07,24,15,56,22.10
2008,07,24,15,57,22.10
2008,07,24,15,58,22.10
2008,07,24,15,59,22.10
2008,07,24,16,00,22.00
2008,07,24,16,01,21.90
2008,07,24,16,02,21.80
2008,07,24,16,03,21.80
2008,07,24,16,04,21.80
2008,07,24,16,05,21.80
2008,07,24,16,06,21.80
2008,07,24,16,07,21.80
2008,07,24,16,08,21.80
2008,07,24,16,09,21.80
2008,07,24,16,10,21.90
2008,07,24,16,11,22.00
2008,07,24,16,12,22.10
2008,07,24,16,13,22.20
2008,07,24,16,14,22.30
2008,07,24,16,15,22.40
2008,07,24,16,16,22.50
2008,07,24,16,17,22.60
2008,07,24,16,18,22.60
2008,07,24,16,19,22.60
2008,07,24,16,20,22.70
2008,07,24,16,21,22.70
2008,07,24,16,22,22.80
2008,07,24,16,23,22.90
2008,07,24,16,24,23.00
2008,07,24,16,25,23.00
2008,07,24,16,26,23.00
2008,07,24,16,27,22.90
2008,07,24,16,28,22.90
2008,07,24,16,29,22.90
2008,07,24,16,30,22.80
2008,07,24,16,31,22.60
2008,07,24,16,32,22.50
2008,07,24,16,33,22.30
2008,07,24,16,34,22.20
2008,07,24,16,35,22.00
2008,07,24,16,36,21.90
2008,07,24,16,37,21.80
2008,07,24,16,38,21.70
2008,07,24,16,39,21.70
2008,07,24,16,40,21.70
2008,07,24,16,41,21.70
2008,07,24,16,42,21.80
2008,07,24,16,43,21.80
2008,07,24,16,44,21.90
2008,07,24,16,45,21.90
2008,07,24,16,46,21.90
2008,07,24,16,47,21.80
2008,07,24,16,48,21.80
2008,07,24,16,49,21.80
2008,07,24,16,50,21.70
2008,07,24,16,51,21.70
2008,07,24,16,52,21.70
2008,07,24,16,53,21.70
2008,07,24,16,54,21.70
2008,07,24,16,55,21.60
2008,07,24,16,56,21.50
2008,07,24,16,57,21.40
2008,07,24,16,58,21.40
2008,07,24,16,59,21.30
2008,07,24,17,00,21.30
2008,07,24,17,01,21.30
2008,07,24,17,02,21.20
2008,07,24,17,03,21.20
2008,07,24,17,04,21.10
2008,07,24,17,05,21.00
2008,07,24,17,06,21.00
2008,07,24,17,07,21.00
2008,07,24,17,08,21.00
2008,07,24,17,09,21.10
2008,07,24,17,10,21.10
2008,07,24,17,11,21.20
2008,07,24,17,12,21.20
2008,07,24,17,13,21.20
2008,07,24,17,14,21.20
2008,07,24,17,15,21.20
2008,07,24,17,16,21.10
2008,07,24,17,17,21.10
2008,07,24,17,18,21.20
2008,07,24,17,19,21.20